Regional Weather Roundup
Issued by NWS Cleveland, OH

Home | Current Version | Previous Version | Text Only | Print | Product List | Glossary On
Versions: 1 2 3 4 5 6 7 8 9 10 11 12 13 14 15 16 17 18 19 20 21 22 23 24 25 26 27 28 29 30 31 32 33 34 35 36 37 38 39 40 41 42 43 44 45 46 47 48 49 50
000
ASUS41 KCLE 310712
RWRCLE
OHIO REGIONAL WEATHER ROUNDUP
NATIONAL WEATHER SERVICE WILMINGTON, OH
300 AM EDT SAT JUL 31 2021

NOTE: "FAIR" INDICATES FEW OR NO CLOUDS BELOW 12,000 FEET WITH NO
SIGNIFICANT WEATHER AND/OR OBSTRUCTIONS TO VISIBILITY.

OHZ001>008-015>018-024>027-034-035-043-044-310800-
   NORTHWEST OHIO

CITY           SKY/WX    TMP DP  RH WIND       PRES   REMARKS
DEFIANCE       FAIR      64  59  83 NW3       30.07S
FINDLAY        FAIR      66  59  78 E6        30.05F
TOLEDO EXPRESS FAIR      66  58  75 SE5       30.05F
TOLEDO EXEC    FAIR      66  58  75 CALM      30.07F
LIMA           FAIR      65  61  87 CALM      30.05F
$$

OHZ009>014-019>023-028>033-038-089-310800-
   NORTHEAST OHIO

CITY           SKY/WX    TMP DP  RH WIND       PRES   REMARKS
CLE-HOPKINS    MOCLDY    62  52  69 SW3       30.05F
CLE-LAKEFRONT  FAIR      68  51  54 N8        30.05F
CUY CO. ARPT   FAIR      53  50  89 CALM      30.08F
LORAIN-ELYRIA  FAIR      61  58  90 CALM      30.08S
ASHTABULA      FAIR      53  51  93 CALM      30.07S
AKRON-CANTON   FAIR      60  53  77 CALM      30.07F
WOOSTER        FAIR      59  56  89 CALM      30.09S
MANSFIELD      FAIR      63  56  78 E6        30.08F
YOUNGSTOWN     MOCLDY    56  51  84 NW3       30.06F
$$

OHZ042-051>053-060>062-070>072-077>081-310800-
  SOUTHWEST OHIO

CITY           SKY/WX    TMP DP  RH WIND       PRES   REMARKS
CINC-COVINGTON MOCLDY    68  60  75 N7        30.05S
CINC-LUNKEN    FAIR      66  63  90 CALM      30.05S
HAMILTON       FAIR      66  64  93 CALM      30.06S
DAYTON         CLOUDY    68  57  68 N3        30.07F
WRIGHT-PAT AFB CLOUDY    68  57  68 CALM      30.05F
DAYTON GENERAL NOT AVBL
WILMINGTON     FAIR      65  61  87 NE6       30.06S
$$

OHZ036-037-039>041-045>050-054>059-063>069-073>076-082>088-310800-
  CENTRAL AND SOUTHEAST OHIO

CITY           SKY/WX    TMP DP  RH WIND       PRES   REMARKS
COLUMBUS       FAIR      67  57  70 E6        30.04F
OSU AIRPORT    FAIR      67  59  75 CALM      30.05F
BOLTON FIELD   FAIR      66  60  81 CALM      30.06S
RICKENBACK AFB FAIR      66  59  78 E3        30.04F
NEWARK         FAIR      65  58  78 CALM      30.05F
MARION         NOT AVBL
LANCASTER      FAIR      65  60  84 CALM      30.06F
ZANESVILLE     FAIR      64  58  80 NE3       30.06F
NEW PHILLY     FAIR      59  58  96 CALM      30.08F
$$



USA.gov is the U.S. government's official web portal to all federal, state and local government web resources and services.